Paducah, KY

4:53 AM CST on December 14, 2017 (GMT -0600)
Barkley Regional

Weather History for KPAH - March, 2013

Change the Weather History Date:

Thursday, March 14, 2013

  Actual Average Record
Temperature  
Mean Temperature 35 °F 48 °F  
Max Temperature 48 °F 58 °F 82 °F (2012)
Min Temperature 22 °F 37 °F 17 °F (1993)
Degree Days  
Heating Degree Days 30 17  
Month to date heating degree days 346 272  
Since 1 July heating degree days 3457 3568  
Cooling Degree Days 0 0  
Month to date cooling degree days 0 0  
Year to date cooling degree days 0 0  
Moisture  
Dew Point 23 °F    
Average Humidity 64    
Maximum Humidity 88    
Minimum Humidity 40    
Precipitation  
Precipitation T in 0.12 in 2.95 in (1938)
Month to date precipitation 0.66 1.67  
Year to date precipitation 12.41 9.26  
Snow  
Snow T in 0.00 in 2.00 in (1975)
Month to date snowfall 0.6 0.4  
Since 1 July snowfall 6.7 8.9  
Snow Depth 0.00 in    
Sea Level Pressure  
Sea Level Pressure 30.33 in    
Wind  
Wind Speed 4 mph (SSE)    
Max Wind Speed 13 mph    
Max Gust Speed 18 mph    
Visibility 10 miles    
Events Rain    
T = Trace of Precipitation, MM = Missing Value Source: NWS Daily Summary

Daily Weather History Graph

Daily Weather History Graph

Search for Another Location

Airport or City:

Trip Planner

Search our weather history database for the weather conditions in past years. The results will help you decide how hot, cold, wet, or windy it might be!

Date:

Astronomy

Mar. 14, 2013 Rise Set
Actual Time 7:07 AM CDT 7:01 PM CDT
Civil Twilight 6:41 AM CDT 7:27 PM CDT
Nautical Twilight 6:11 AM CDT 7:57 PM CDT
Astronomical Twilight 5:40 AM CDT 8:28 PM CDT
Moon 8:25 AM CDT 10:12 PM CDT
Length of Visible Light 12h 46m
Length of Day
11h 54m
Waxing Crescent, 9% of the Moon is Illuminated
Mar 14
Waxing Crescent
Mar 19
First Quarter
Mar 27
Full
Apr 2
Last Quarter
Apr 10
New

Hourly Weather History & Observations

Time (CDT) Temp. Windchill Dew Point Humidity Pressure Visibility Wind Dir Wind Speed Gust Speed Precip Events Conditions
12:53 AM 26.1 °F - 21.0 °F 81% 30.42 in 10.0 mi Calm Calm - N/A   Clear
1:53 AM 25.0 °F - 21.0 °F 85% 30.42 in 10.0 mi Calm Calm - N/A   Clear
2:53 AM 24.1 °F - 19.9 °F 84% 30.42 in 10.0 mi Calm Calm - N/A   Clear
3:53 AM 23.0 °F - 19.9 °F 88% 30.41 in 10.0 mi Calm Calm - N/A   Clear
4:53 AM 24.1 °F - 19.9 °F 84% 30.41 in 10.0 mi Calm Calm - N/A   Clear
5:53 AM 24.1 °F - 19.0 °F 81% 30.41 in 10.0 mi Calm Calm - N/A   Clear
6:53 AM 23.0 °F - 19.9 °F 88% 30.42 in 10.0 mi Calm Calm - N/A   Clear
7:53 AM 30.0 °F - 23.0 °F 75% 30.41 in 10.0 mi Calm Calm - N/A   Mostly Cloudy
8:53 AM 32.0 °F 26.4 °F 24.1 °F 73% 30.42 in 10.0 mi SW 5.8 mph - N/A   Overcast
9:53 AM 35.1 °F 30.1 °F 24.1 °F 64% 30.41 in 10.0 mi South 5.8 mph - N/A   Overcast
10:53 AM 39.0 °F 33.4 °F 23.0 °F 53% 30.40 in 10.0 mi South 8.1 mph - N/A   Overcast
11:53 AM 39.9 °F 37.8 °F 21.9 °F 49% 30.40 in 10.0 mi South 3.5 mph - N/A   Overcast
12:53 PM 43.0 °F 38.2 °F 21.9 °F 43% 30.37 in 10.0 mi South 8.1 mph - N/A   Overcast
1:53 PM 44.1 °F 40.1 °F 21.9 °F 42% 30.34 in 10.0 mi SSE 6.9 mph - N/A   Overcast
2:53 PM 44.1 °F 39.5 °F 21.9 °F 42% 30.30 in 10.0 mi South 8.1 mph - N/A   Overcast
3:53 PM 43.0 °F 38.8 °F 27.0 °F 53% 30.26 in 10.0 mi SSE 6.9 mph - 0.00 in Rain Light Rain
4:53 PM 44.1 °F 41.5 °F 28.0 °F 53% 30.24 in 10.0 mi SSE 4.6 mph - 0.00 in   Overcast
5:53 PM 46.9 °F - 27.0 °F 46% 30.22 in 10.0 mi SSE 5.8 mph - N/A   Mostly Cloudy
6:53 PM 46.0 °F 41.9 °F 27.0 °F 47% 30.20 in 10.0 mi South 8.1 mph - N/A   Mostly Cloudy
7:53 PM 41.0 °F 39.0 °F 27.0 °F 57% 30.19 in 10.0 mi SE 3.5 mph - N/A   Clear
8:53 PM 42.1 °F 37.7 °F 28.0 °F 58% 30.18 in 10.0 mi SSE 6.9 mph - N/A   Clear
9:53 PM 41.0 °F 37.1 °F 26.1 °F 55% 30.17 in 10.0 mi SE 5.8 mph - N/A   Clear
10:53 PM 39.9 °F 35.8 °F 26.1 °F 58% 30.15 in 10.0 mi SSE 5.8 mph - N/A   Clear
11:53 PM 39.0 °F 35.7 °F 25.0 °F 57% 30.14 in 10.0 mi SE 4.6 mph - N/A   Clear